This is the latest recevied weather packets stored in our database for station/object K8GLX. If no packets are shown the sender has not sent any weather packets the latest 10 day(s).
| Time | Temp. | Humidity | Pressure | Rain* | Wind** | Luminosity | Snow |
|---|---|---|---|---|---|---|---|
| 1777652535 | 5° C | 95% | 1012.6 hPa | 1.78 mm | - | 174 W/m² | - |
| 1777652229 | 5.56° C | 95% | 1012.6 hPa | 1.78 mm | - | 123 W/m² | - |
| 1777651935 | 5° C | 95% | 1012.8 hPa | 1.78 mm | - | 158 W/m² | - |
| 1777651629 | 5° C | 95% | 1012.7 hPa | 1.78 mm | - | 118 W/m² | - |
| 1777651334 | 5° C | 95% | 1012.8 hPa | 1.52 mm | - | 107 W/m² | - |
| 1777651029 | 5° C | 95% | 1012.7 hPa | 1.52 mm | - | 104 W/m² | - |
| 1777650735 | 5° C | 95% | 1012.8 hPa | 1.52 mm | - | 83 W/m² | - |
| 1777650430 | 5.56° C | 95% | 1012.7 hPa | 1.27 mm | - | 96 W/m² | - |
| 1777650365 | 5.56° C | 95% | 1012.9 hPa | 1.27 mm | - | 97 W/m² | - |
| 1777649944 | 5° C | 95% | 1012.7 hPa | 1.02 mm | - | 100 W/m² | - |
| 1777649662 | 5° C | 95% | 1012.8 hPa | 1.02 mm | - | 126 W/m² | - |
| 1777649229 | 5° C | 95% | 1012.7 hPa | 1.02 mm | - | 78 W/m² | - |
| 1777648934 | 5.56° C | 95% | 1012.7 hPa | 0.76 mm | - | 114 W/m² | - |
| 1777648628 | 5.56° C | 95% | 1012.8 hPa | 0.76 mm | - | 89 W/m² | - |
| 1777648340 | 5° C | 95% | 1012.7 hPa | 0.51 mm | - | 89 W/m² | - |
| 1777648146 | 5° C | 95% | 1012.9 hPa | 0.51 mm | - | 79 W/m² | - |
| 1777647862 | 5° C | 95% | 1012.8 hPa | 0.51 mm | - | 57 W/m² | - |
| 1777647429 | 5° C | 95% | 1012.7 hPa | 0.51 mm | - | 44 W/m² | - |
| 1777647262 | 5.56° C | 95% | 1012.9 hPa | 0.51 mm | - | 52 W/m² | - |
| 1777646829 | 5° C | 95% | 1012.6 hPa | 0.51 mm | - | 70 W/m² | - |
| 1777646535 | 5° C | 95% | 1012.7 hPa | 0.51 mm | - | 64 W/m² | - |
| 1777646229 | 5° C | 95% | 1012.6 hPa | 0.51 mm | - | 73 W/m² | - |
| 1777645934 | 5° C | 95% | 1012.5 hPa | 0.51 mm | - | 55 W/m² | - |
| 1777645629 | 5° C | 95% | 1012.5 hPa | 0.51 mm | - | 56 W/m² | - |
| 1777645462 | 5° C | 95% | 1012.5 hPa | 0.51 mm | - | 56 W/m² | - |
* Rain latest hour (hover to see other rain measurements)
** Current wind speed in m/s (hover to see current wind gust speed)